EW9434 Weather Reports


Display with metric or nautical units.
time (UTC)temp
F
wind
direction
speed
MPH
gust
MPH
rain 1hr
in
rain 24hr
in
rain mn
in
humidity
%
barometer
mb
20260903194727 96 163 5.0 13.0 0.00 0.00 0.00 48 1014.7
20260903194701 96 106 5.0 15.0 0.00 0.00 0.00 47 1014.7
20260903194546 95 109 4.0 9.0 0.00 0.00 0.00 48 1012.8
20260903193712 96 174 5.0 15.0 0.00 0.00 0.00 47 1014.8
20260903193208 96 205 5.0 16.0 0.00 0.00 0.00 48 1014.7
20260903193005 95 125 3.0 16.0 0.00 0.00 0.00 47 1012.9
20260903192934 96 208 5.0 16.0 0.00 0.00 0.00 47 1014.8
20260903192146 96 40 5.0 12.0 0.00 0.00 0.00 47 1014.9
20260903191647 96 188 5.0 12.0 0.00 0.00 0.00 47 1015.0
20260903191505 95 155 4.0 12.0 0.00 0.00 0.00 47 1013.1
20260903191338 96 143 5.0 13.0 0.00 0.00 0.00 47 1015.0
20260903190619 96 149 4.0 13.0 0.00 0.00 0.00 46 1015.1
20260903190322 96 211 3.0 9.0 0.00 0.00 0.00 46 1015.0
20260903190038 96 213 3.0 9.0 0.00 0.00 0.00 46 1013.2
20260903185535 96 157 4.0 11.0 0.00 0.00 0.00 49 1015.1
20260903185037 95 198 5.0 13.0 0.00 0.00 0.00 48 1015.2
20260903184802 95 170 6.0 12.0 0.00 0.00 0.00 47 1015.2
20260903184507 95 122 5.0 12.0 0.00 0.00 0.00 47 1013.4
20260903184012 95 202 6.0 13.0 0.00 0.00 0.00 47 1015.2
20260903183718 96 202 5.0 10.0 0.00 0.00 0.00 47 1015.2
20260903183010 95 190 3.0 11.0 0.00 0.00 0.00 49 1013.5
20260903182934 96 170 4.0 11.0 0.00 0.00 0.00 48 1015.3
20260903182428 95 215 5.0 11.0 0.00 0.00 0.00 49 1015.3
20260903181927 95 82 5.0 11.0 0.00 0.00 0.00 48 1015.3
20260903181541 94 215 4.0 12.0 0.00 0.00 0.00 50 1013.5
20260903181427 94 136 4.0 12.0 0.00 0.00 0.00 54 1015.3
20260903181148 94 211 5.0 12.0 0.00 0.00 0.00 49 1015.3
20260903180411 94 163 4.0 11.0 0.00 0.00 0.00 51 1015.4
20260903180105 94 219 4.0 11.0 0.00 0.00 0.00 50 1013.6
20260903175908 94 192 4.0 14.0 0.00 0.00 0.00 51 1015.4
20260903175405 94 128 6.0 10.0 0.00 0.00 0.00 51 1015.4
20260903174848 94 71 6.0 14.0 0.00 0.00 0.00 50 1015.4
20260903174534 94 242 6.0 14.0 0.00 0.00 0.00 51 1013.7
20260903174348 94 208 5.0 11.0 0.00 0.00 0.00 51 1015.5
20260903174051 94 120 5.0 11.0 0.00 0.00 0.00 51 1015.6
20260903173255 94 147 4.0 11.0 0.00 0.00 0.00 53 1015.6
20260903173043 94 146 5.0 11.0 0.00 0.00 0.00 52 1013.9
20260903172757 94 185 4.0 11.0 0.00 0.00 0.00 52 1015.7
20260903172230 94 189 4.0 10.0 0.00 0.00 0.00 53 1015.7
20260903171705 94 151 3.0 11.0 0.00 0.00 0.00 52 1015.8
20260903171526 93 212 2.0 11.0 0.00 0.00 0.00 52 1014.0
20260903171138 94 194 3.0 11.0 0.00 0.00 0.00 54 1015.8
20260903170645 93 188 4.0 9.0 0.00 0.00 0.00 52 1015.9
20260903170638 94 116 3.0 9.0 0.00 0.00 0.00 53 1015.9
20260903170045 93 188 4.0 9.0 0.00 0.00 0.00 52 1014.1
20260903165813 93 184 4.0 9.0 0.00 0.00 0.00 55 1015.9
20260903165317 93 187 4.0 10.0 0.00 0.00 0.00 54 1016.0
20260903164552 93 210 4.0 10.0 0.00 0.00 0.00 52 1016.1
20260903164522 92 209 4.0 10.0 0.00 0.00 0.00 52 1014.4
20260903164032 93 179 4.0 10.0 0.00 0.00 0.00 55 1016.2
20260903163729 92 120 4.0 10.0 0.00 0.00 0.00 52 1016.2
20260903163157 92 185 3.0 9.0 0.00 0.00 0.00 55 1016.3
20260903163037 92 140 2.0 8.0 0.00 0.00 0.00 55 1014.5
20260903162432 92 138 4.0 9.0 0.00 0.00 0.00 58 1016.3
20260903162149 92 188 4.0 9.0 0.00 0.00 0.00 57 1016.3
20260903161513 91 181 5.0 11.0 0.00 0.00 0.00 56 1014.6
20260903161428 91 136 4.0 11.0 0.00 0.00 0.00 56 1016.3
20260903160927 91 151 5.0 12.0 0.00 0.00 0.00 58 1016.4
20260903160420 91 167 5.0 12.0 0.00 0.00 0.00 57 1016.4
20260903160111 90 200 4.0 11.0 0.00 0.00 0.00 58 1014.6
20260903155917 91 206 5.0 12.0 0.00 0.00 0.00 57 1016.4
20260903155612 90 209 4.0 12.0 0.00 0.00 0.00 57 1016.5
20260903154827 90 203 4.0 10.0 0.00 0.00 0.00 60 1016.4
20260903154542 90 149 4.0 10.0 0.00 0.00 0.00 60 1014.7
20260903154302 90 194 4.0 9.0 0.00 0.00 0.00 61 1016.5
20260903153731 90 177 3.0 7.0 0.00 0.00 0.00 62 1016.4
20260903153229 90 44 3.0 6.0 0.00 0.00 0.00 63 1016.4
20260903153026 89 167 2.0 7.0 0.00 0.00 0.00 63 1014.7
20260903152728 90 166 3.0 7.0 0.00 0.00 0.00 63 1016.4
20260903152202 89 185 3.0 9.0 0.00 0.00 0.00 63 1016.4
20260903151636 89 134 2.0 8.0 0.00 0.00 0.00 64 1016.4
20260903151525 89 132 2.0 8.0 0.00 0.00 0.00 63 1014.7
20260903151135 89 188 2.0 6.0 0.00 0.00 0.00 65 1016.4
20260903150608 89 186 3.0 8.0 0.00 0.00 0.00 64 1016.4
20260903150043 89 152 3.0 8.0 0.00 0.00 0.00 65 1016.3
20260903150014 88 152 3.0 8.0 0.00 0.00 0.00 64 1014.6
20260903145517 89 199 3.0 7.0 0.00 0.00 0.00 64 1016.4
20260903145207 89 202 2.0 6.0 0.00 0.00 0.00 63 1016.4
20260903144526 88 191 2.0 5.0 0.00 0.00 0.00 66 1014.6
20260903144446 89 184 2.0 6.0 0.00 0.00 0.00 66 1016.3
20260903143921 88 191 2.0 6.0 0.00 0.00 0.00 67 1016.3
20260903143356 88 201 2.0 5.0 0.00 0.00 0.00 66 1016.3
20260903143103 88 209 2.0 4.0 0.00 0.00 0.00 66 1014.6
20260903142842 88 213 2.0 5.0 0.00 0.00 0.00 66 1016.3
20260903142344 88 214 2.0 6.0 0.00 0.00 0.00 66 1016.3
20260903141839 87 216 3.0 7.0 0.00 0.00 0.00 66 1016.4
20260903141529 87 197 1.0 7.0 0.00 0.00 0.00 67 1014.6
20260903141340 87 155 2.0 7.0 0.00 0.00 0.00 65 1016.3
20260903141028 86 150 2.0 6.0 0.00 0.00 0.00 67 1016.3
20260903140307 86 130 2.0 5.0 0.00 0.00 0.00 70 1016.3
20260903140023 85 129 2.0 5.0 0.00 0.00 0.00 69 1014.6
20260903135738 86 144 2.0 3.0 0.00 0.00 0.00 70 1016.3
20260903135236 85 145 1.0 4.0 0.00 0.00 0.00 71 1016.4
20260903134909 84 146 2.0 3.0 0.00 0.00 0.00 74 1016.5
20260903134755 84 146 1.0 4.0 0.00 0.00 0.00 73 1016.5
20260903134506 84 146 1.0 4.0 0.00 0.00 0.00 73 1014.8
20260903133904 83 146 2.0 4.0 0.00 0.00 0.00 74 1016.5
20260903133116 83 146 2.0 5.0 0.00 0.00 0.00 75 1016.6
20260903133044 82 146 2.0 4.0 0.00 0.00 0.00 75 1014.9
20260903132545 83 146 2.0 5.0 0.00 0.00 0.00 76 1016.7
20260903132044 82 141 3.0 5.0 0.00 0.00 0.00 77 1016.7
20260903132024 82 142 2.0 5.0 0.00 0.00 0.00 77 1016.7
20260903131558 81 142 2.0 5.0 0.00 0.00 0.00 77 1015.0
20260903131038 82 119 2.0 4.0 0.00 0.00 0.00 78 1016.8
20260903130737 81 116 2.0 4.0 0.00 0.00 0.00 78 1016.8
20260903130103 81 117 1.0 4.0 0.00 0.00 0.00 79 1015.1
20260903130012 81 117 2.0 4.0 0.00 0.00 0.00 79 1016.8
20260903125442 81 115 2.0 4.0 0.00 0.00 0.00 80 1016.8
20260903125204 80 115 2.0 3.0 0.00 0.00 0.00 81 1016.8
20260903124604 80 116 1.0 3.0 0.00 0.00 0.00 81 1015.1
20260903124414 80 115 2.0 4.0 0.00 0.00 0.00 81 1016.8
20260903124106 80 115 1.0 4.0 0.00 0.00 0.00 81 1017.0
20260903123343 80 113 1.0 4.0 0.00 0.00 0.00 82 1016.8
20260903123008 79 114 1.0 4.0 0.00 0.00 0.00 82 1015.1
20260903122838 79 113 1.0 4.0 0.00 0.00 0.00 82 1017.0
20260903122338 79 109 0.0 3.0 0.00 0.00 0.00 83 1017.0
20260903121810 79 106 0.0 1.0 0.00 0.00 0.00 83 1017.1
20260903121547 78 132 0.0 1.0 0.00 0.00 0.00 83 1015.2
20260903121305 79 115 0.0 2.0 0.00 0.00 0.00 83 1017.0
20260903120804 78 107 0.0 2.0 0.00 0.00 0.00 84 1017.0
20260903120238 78 106 0.0 0.0 0.00 0.00 0.00 84 1016.8
20260903120012 78 105 0.0 1.0 0.00 0.00 0.00 84 1015.1
20260903115738 78 101 0.0 2.0 0.00 0.00 0.00 84 1016.8
20260903115208 78 105 0.0 2.0 0.00 0.00 0.00 85 1016.8
20260903114705 78 107 0.0 2.0 0.00 0.00 0.00 85 1016.8
20260903114541 77 273 0.0 2.0 0.00 0.00 0.00 85 1015.0
20260903114201 78 106 0.0 2.0 0.00 0.00 0.00 85 1016.8
20260903113925 78 273 0.0 1.0 0.00 0.00 0.00 84 1016.8
20260903113350 78 107 0.0 1.0 0.00 0.00 0.00 84 1016.6
20260903113042 77 273 0.0 1.0 0.00 0.00 0.00 84 1014.9
20260903112628 78 107 0.0 1.0 0.00 0.00 0.00 84 1016.6
20260903112129 78 107 0.0 2.0 0.00 0.00 0.00 84 1016.5
20260903111827 78 108 0.0 2.0 0.00 0.00 0.00 84 1016.5
20260903111533 77 108 1.0 2.0 0.00 0.00 0.00 84 1014.8
20260903111038 78 109 0.0 2.0 0.00 0.00 0.00 84 1016.4
20260903110525 78 111 0.0 2.0 0.00 0.00 0.00 85 1016.4
20260903110202 78 112 0.0 2.0 0.00 0.00 0.00 85 1016.3
20260903110127 77 112 0.0 2.0 0.00 0.00 0.00 85 1014.6
20260903105439 78 113 0.0 1.0 0.00 0.00 0.00 85 1016.3
20260903104912 78 113 0.0 1.0 0.00 0.00 0.00 84 1016.2
20260903104537 78 107 0.0 1.0 0.00 0.00 0.00 84 1014.5
20260903104408 78 113 0.0 3.0 0.00 0.00 0.00 84 1016.2
20260903104129 78 273 0.0 3.0 0.00 0.00 0.00 84 1016.1
20260903103339 78 109 0.0 2.0 0.00 0.00 0.00 84 1016.1
20260903103026 78 273 0.0 3.0 0.00 0.00 0.00 84 1014.4
20260903102836 78 273 0.0 3.0 0.00 0.00 0.00 84 1016.1
20260903102528 78 112 1.0 3.0 0.00 0.00 0.00 84 1016.1
20260903101806 78 112 1.0 2.0 0.00 0.00 0.00 84 1016.1
20260903101541 78 114 0.0 2.0 0.00 0.00 0.00 84 1014.4
20260903101240 78 115 1.0 3.0 0.00 0.00 0.00 84 1016.1
20260903100714 78 273 1.0 3.0 0.00 0.00 0.00 84 1016.1
20260903100416 78 273 0.0 3.0 0.00 0.00 0.00 84 1016.1
20260903100054 78 116 0.0 1.0 0.00 0.00 0.00 84 1014.4
20260903095917 78 116 0.0 3.0 0.00 0.00 0.00 84 1016.0
20260903095152 78 116 0.0 3.0 0.00 0.00 0.00 84 1016.1
20260903094652 78 116 0.0 1.0 0.00 0.00 0.00 84 1016.0
20260903094609 78 117 0.0 1.0 0.00 0.00 0.00 84 1014.3
20260903094151 78 116 0.0 1.0 0.00 0.00 0.00 84 1016.0
20260903093653 78 116 0.0 1.0 0.00 0.00 0.00 84 1016.0
20260903093128 79 114 1.0 4.0 0.00 0.00 0.00 83 1015.9
20260903093055 78 114 0.0 4.0 0.00 0.00 0.00 83 1014.2
20260903092826 79 113 0.0 4.0 0.00 0.00 0.00 83 1015.9
20260903092057 79 113 0.0 3.0 0.00 0.00 0.00 82 1016.0
20260903091614 79 112 0.0 3.0 0.00 0.00 0.00 82 1014.2
20260903091552 79 112 0.0 3.0 0.00 0.00 0.00 82 1016.0
20260903091315 79 113 0.0 3.0 0.00 0.00 0.00 82 1016.0
20260903090523 79 107 1.0 3.0 0.00 0.00 0.00 82 1016.0
20260903090100 79 106 0.0 3.0 0.00 0.00 0.00 81 1014.3
20260903090021 80 107 1.0 3.0 0.00 0.00 0.00 81 1016.0
20260903085716 80 105 1.0 3.0 0.00 0.00 0.00 81 1016.0
20260903085146 80 101 0.0 2.0 0.00 0.00 0.00 81 1016.0
20260903084508 79 101 0.0 2.0 0.00 0.00 0.00 81 1014.1
20260903084430 80 101 1.0 2.0 0.00 0.00 0.00 81 1015.9
20260903083856 80 101 0.0 2.0 0.00 0.00 0.00 81 1015.8
20260903083351 80 101 0.0 1.0 0.00 0.00 0.00 81 1015.8
20260903083108 80 101 0.0 1.0 0.00 0.00 0.00 81 1015.8
20260903083040 79 101 0.0 0.0 0.00 0.00 0.00 81 1014.1
20260903082324 80 101 0.0 1.0 0.00 0.00 0.00 80 1015.9
20260903081758 80 101 0.0 3.0 0.00 0.00 0.00 80 1015.8
20260903081559 80 101 0.0 2.0 0.00 0.00 0.00 80 1014.1
20260903081256 80 101 1.0 3.0 0.00 0.00 0.00 80 1015.8
20260903080735 80 273 1.0 3.0 0.00 0.00 0.00 80 1015.9
20260903080206 80 273 1.0 3.0 0.00 0.00 0.00 79 1015.8
20260903080005 80 273 1.0 3.0 0.00 0.00 0.00 79 1014.1
20260903075706 80 273 1.0 3.0 0.00 0.00 0.00 79 1015.8
20260903075143 81 101 0.0 2.0 0.00 0.00 0.00 78 1015.8
20260903074643 81 273 1.0 3.0 0.00 0.00 0.00 78 1015.8
20260903074504 80 273 0.0 3.0 0.00 0.00 0.00 78 1014.0
20260903074117 81 273 1.0 3.0 0.00 0.00 0.00 78 1015.8
20260903073617 81 101 0.0 2.0 0.00 0.00 0.00 78 1015.7
20260903073053 81 101 0.0 1.0 0.00 0.00 0.00 78 1015.7
20260903073030 81 101 0.0 1.0 0.00 0.00 0.00 78 1014.0
20260903072531 81 273 0.0 1.0 0.00 0.00 0.00 77 1015.7
20260903072007 81 273 0.0 1.0 0.00 0.00 0.00 77 1015.7
20260903071551 81 273 0.0 1.0 0.00 0.00 0.00 77 1013.9
20260903071508 81 273 0.0 1.0 0.00 0.00 0.00 77 1015.6
20260903071204 82 273 1.0 2.0 0.00 0.00 0.00 77 1015.6
20260903070447 82 101 0.0 2.0 0.00 0.00 0.00 77 1015.6
20260903070107 81 101 0.0 2.0 0.00 0.00 0.00 76 1013.9
20260903065919 82 273 0.0 2.0 0.00 0.00 0.00 76 1015.6
20260903065353 82 101 1.0 2.0 0.00 0.00 0.00 76 1015.7
20260903065050 82 101 1.0 2.0 0.00 0.00 0.00 76 1015.7
20260903064542 81 273 0.0 2.0 0.00 0.00 0.00 76 1014.0
20260903064307 82 273 1.0 2.0 0.00 0.00 0.00 76 1015.7
20260903063807 82 273 1.0 4.0 0.00 0.00 0.00 76 1015.7
20260903063250 82 273 1.0 4.0 0.00 0.00 0.00 75 1015.7
20260903063047 82 273 0.0 2.0 0.00 0.00 0.00 76 1014.0
20260903062749 82 273 1.0 2.0 0.00 0.00 0.00 75 1015.8
20260903062229 82 273 0.0 0.0 0.00 0.00 0.00 75 1015.8
20260903061945 82 273 0.0 2.0 0.00 0.00 0.00 75 1015.7
20260903061604 82 273 0.0 1.0 0.00 0.00 0.00 75 1014.0
20260903061227 82 100 0.0 2.0 0.00 0.00 0.00 75 1015.8
20260903060943 82 100 1.0 2.0 0.00 0.00 0.00 75 1015.7
20260903060219 82 100 1.0 2.0 0.00 0.00 0.00 75 1015.7
20260903060006 82 99 1.0 2.0 0.00 0.00 0.00 75 1014.0
20260903055713 82 100 1.0 2.0 0.00 0.00 0.00 75 1015.7
20260903055211 82 99 1.0 3.0 0.00 0.00 0.00 74 1015.7
20260903054716 83 100 1.0 3.0 0.00 0.00 0.00 74 1015.7
20260903054546 82 99 1.0 3.0 0.00 0.00 0.00 74 1013.9
20260903054151 83 100 0.0 2.0 0.00 0.00 0.00 74 1015.6
20260903053652 83 273 0.0 2.0 0.00 0.00 0.00 73 1015.6
20260903053153 83 273 1.0 3.0 0.00 0.00 0.00 73 1015.6
20260903053058 83 273 0.0 3.0 0.00 0.00 0.00 73 1013.9
20260903052633 83 99 1.0 3.0 0.00 0.00 0.00 73 1015.6
20260903052113 83 273 1.0 3.0 0.00 0.00 0.00 73 1015.6
20260903051613 83 99 1.0 3.0 0.00 0.00 0.00 72 1015.6
20260903051543 83 99 1.0 3.0 0.00 0.00 0.00 73 1013.9
20260903051312 83 273 1.0 4.0 0.00 0.00 0.00 72 1015.6
20260903050550 83 273 2.0 7.0 0.00 0.00 0.00 72 1015.5
20260903050027 83 96 1.0 7.0 0.00 0.00 0.00 72 1015.5
20260903050007 83 97 3.0 7.0 0.00 0.00 0.00 72 1013.7
20260903045523 83 113 1.0 1.0 0.00 0.00 0.00 72 1015.5
20260903045004 84 113 1.0 3.0 0.00 0.00 0.00 72 1015.5
20260903044517 83 113 1.0 3.0 0.00 0.00 0.00 72 1013.7
20260903044503 84 114 1.0 3.0 0.00 0.00 0.00 72 1015.4
20260903044005 84 113 1.0 3.0 0.00 0.00 0.00 71 1015.4
20260903043450 84 113 1.0 2.0 0.00 0.00 0.00 71 1015.4
20260903043019 84 113 1.0 3.0 0.00 0.00 0.00 71 1013.7
20260903042949 84 113 1.0 3.0 0.00 0.00 0.00 71 1015.5
20260903042448 84 113 1.0 3.0 0.00 0.00 0.00 70 1015.4
20260903042212 84 113 1.0 2.0 0.00 0.00 0.00 70 1015.4
20260903041506 84 113 0.0 2.0 0.00 0.00 0.00 70 1013.6
20260903041434 84 113 1.0 2.0 0.00 0.00 0.00 70 1015.3
20260903041141 85 113 1.0 3.0 0.00 0.00 0.00 69 1015.4
20260903040421 85 113 1.0 3.0 0.00 0.00 0.00 69 1015.4
20260903040143 85 112 1.0 2.0 0.00 0.00 0.00 69 1015.4
20260903040001 84 112 0.0 2.0 0.00 0.00 0.00 69 1013.6
20260903035358 85 113 1.0 3.0 0.00 0.00 0.00 69 1015.4
20260903034827 85 112 1.0 3.0 0.00 0.00 0.00 69 1015.4
20260903034515 85 112 0.0 2.0 0.00 0.00 0.00 68 1013.7
20260903034325 85 112 1.0 2.0 0.00 0.00 0.00 68 1015.5
20260903033800 85 113 1.0 3.0 0.00 0.00 0.00 68 1015.5
20260903033722 85 112 1.0 3.0 0.00 0.00 0.00 68 1015.5
20260903033108 85 112 1.0 3.0 0.00 0.00 0.00 68 1013.7
20260903032705 86 112 1.0 2.0 0.00 0.00 0.00 67 1015.5
20260903032203 86 112 1.0 2.0 0.00 0.00 0.00 67 1015.5
20260903031659 86 113 1.0 3.0 0.00 0.00 0.00 67 1015.5
20260903031607 85 112 0.0 3.0 0.00 0.00 0.00 67 1013.8
20260903031157 86 112 1.0 3.0 0.00 0.00 0.00 67 1015.5
20260903030850 86 111 1.0 3.0 0.00 0.00 0.00 67 1015.5
20260903030126 86 111 1.0 3.0 0.00 0.00 0.00 66 1015.6
20260903030009 86 111 0.0 3.0 0.00 0.00 0.00 66 1013.9
20260903025622 87 110 1.0 3.0 0.00 0.00 0.00 66 1015.7
20260903025053 87 109 1.0 2.0 0.00 0.00 0.00 65 1015.7
20260903024552 87 109 1.0 3.0 0.00 0.00 0.00 65 1015.7
20260903024534 86 109 0.0 3.0 0.00 0.00 0.00 65 1014.0
20260903024047 87 109 1.0 3.0 0.00 0.00 0.00 65 1015.7
20260903023545 87 108 1.0 3.0 0.00 0.00 0.00 64 1015.8
20260903023059 87 108 0.0 4.0 0.00 0.00 0.00 64 1014.0
20260903023041 87 108 1.0 4.0 0.00 0.00 0.00 64 1015.8
20260903022541 87 107 2.0 4.0 0.00 0.00 0.00 64 1015.8
20260903022017 87 134 1.0 4.0 0.00 0.00 0.00 64 1015.8
20260903021503 87 134 1.0 4.0 0.00 0.00 0.00 64 1014.1
20260903021444 87 134 1.0 4.0 0.00 0.00 0.00 64 1015.8
20260903020943 87 137 1.0 4.0 0.00 0.00 0.00 64 1015.8
20260903020418 88 137 2.0 4.0 0.00 0.00 0.00 63 1015.7
20260903020104 88 137 1.0 4.0 0.00 0.00 0.00 63 1015.8
20260903020017 87 137 1.0 3.0 0.00 0.00 0.00 63 1014.0
20260903015348 88 139 1.0 4.0 0.00 0.00 0.00 63 1015.8
20260903014842 88 144 2.0 3.0 0.00 0.00 0.00 63 1015.8
20260903014532 87 145 1.0 3.0 0.00 0.00 0.00 63 1014.0
20260903014342 88 146 1.0 3.0 0.00 0.00 0.00 63 1015.8
20260903014042 88 149 1.0 3.0 0.00 0.00 0.00 63 1015.7
20260903013311 88 149 1.0 3.0 0.00 0.00 0.00 63 1015.6
20260903013048 87 148 1.0 3.0 0.00 0.00 0.00 62 1013.9
20260903012805 88 149 1.0 3.0 0.00 0.00 0.00 62 1015.6
20260903012505 88 149 2.0 5.0 0.00 0.00 0.00 62 1015.6
20260903011927 88 144 2.0 5.0 0.00 0.00 0.00 62 1015.5
20260903011509 88 145 2.0 5.0 0.00 0.00 0.00 62 1013.8
20260903011209 88 147 2.0 5.0 0.00 0.00 0.00 63 1015.5
20260903010645 88 134 1.0 4.0 0.00 0.00 0.00 63 1015.4
20260903010139 88 134 1.0 4.0 0.00 0.00 0.00 63 1015.4
20260903005637 88 145 1.0 2.0 0.00 0.00 0.00 63 1015.3
20260903005111 88 144 1.0 4.0 0.00 0.00 0.00 63 1015.3
20260903004828 88 145 1.0 4.0 0.00 0.00 0.00 62 1015.3
20260903004557 88 145 1.0 4.0 0.00 0.00 0.00 62 1013.5
20260903004103 88 172 2.0 4.0 0.00 0.00 0.00 62 1015.3
20260903003829 88 180 1.0 6.0 0.00 0.00 0.00 62 1015.3
20260903003059 88 180 1.0 6.0 0.00 0.00 0.00 62 1015.2
20260903003006 88 181 1.0 6.0 0.00 0.00 0.00 62 1013.4
20260903002815 89 198 2.0 5.0 0.00 0.00 0.00 62 1015.1
20260903002029 89 201 2.0 7.0 0.00 0.00 0.00 61 1015.2
20260903001518 89 214 2.0 7.0 0.00 0.00 0.00 60 1013.4
20260903001503 89 214 3.0 7.0 0.00 0.00 0.00 60 1015.2
20260903001001 89 183 3.0 7.0 0.00 0.00 0.00 60 1015.2
20260903000455 89 202 2.0 7.0 0.00 0.00 0.00 60 1015.2
20260903000221 90 165 2.0 6.0 0.00 0.00 0.00 60 1015.1
20260903000033 89 174 2.0 6.0 0.00 0.00 0.00 60 1013.4
20260902235429 90 182 2.0 6.0 0.00 0.00 0.00 59 1015.1
20260902234859 90 118 2.0 6.0 0.00 0.00 0.00 59 1015.1
20260902234617 90 93 2.0 6.0 0.00 0.00 0.00 59 1015.1
20260902234546 90 180 1.0 6.0 0.00 0.00 0.00 59 1013.4
20260902234058 91 176 3.0 12.0 0.00 0.00 0.00 58 1015.1
20260902233316 91 152 4.0 12.0 0.00 0.00 0.00 57 1015.0
20260902233017 91 128 3.0 7.0 0.00 0.00 0.00 57 1013.3
20260902232819 91 117 3.0 9.0 0.00 0.00 0.00 57 1015.0
20260902232249 91 150 4.0 9.0 0.00 0.00 0.00 56 1015.1
20260902231747 92 161 4.0 10.0 0.00 0.00 0.00 56 1015.1
20260902231521 91 150 4.0 9.0 0.00 0.00 0.00 55 1013.3
20260902231247 92 142 3.0 10.0 0.00 0.00 0.00 55 1015.1
20260902230940 92 178 3.0 7.0 0.00 0.00 0.00 56 1015.2
20260902230441 92 184 3.0 7.0 0.00 0.00 0.00 55 1015.2
20260902230035 92 91 2.0 6.0 0.00 0.00 0.00 55 1013.5
20260902225647 92 192 4.0 10.0 0.00 0.00 0.00 54 1015.2
20260902225147 92 196 4.0 11.0 0.00 0.00 0.00 54 1015.2
20260902224638 92 205 3.0 10.0 0.00 0.00 0.00 54 1013.5
20260902224619 93 206 4.0 11.0 0.00 0.00 0.00 54 1015.2
20260902224120 93 112 4.0 9.0 0.00 0.00 0.00 53 1015.3
20260902223553 93 159 3.0 10.0 0.00 0.00 0.00 54 1015.2
20260902223051 93 196 3.0 10.0 0.00 0.00 0.00 54 1015.3
20260902223019 93 196 3.0 10.0 0.00 0.00 0.00 53 1013.5
20260902222523 94 226 4.0 9.0 0.00 0.00 0.00 53 1015.3
20260902222442 94 175 4.0 10.0 0.00 0.00 0.00 52 1015.3
20260902221617 93 120 4.0 10.0 0.00 0.00 0.00 52 1013.6
20260902221434 94 188 3.0 10.0 0.00 0.00 0.00 51 1015.4
20260902220934 94 201 3.0 10.0 0.00 0.00 0.00 52 1015.4
20260902220408 94 178 4.0 9.0 0.00 0.00 0.00 52 1015.4
20260902220014 94 176 3.0 9.0 0.00 0.00 0.00 51 1013.6
20260902215853 94 199 4.0 10.0 0.00 0.00 0.00 52 1015.4
20260902215352 94 178 4.0 10.0 0.00 0.00 0.00 52 1015.4
20260902214852 94 176 4.0 12.0 0.00 0.00 0.00 53 1015.4
20260902214539 94 101 3.0 12.0 0.00 0.00 0.00 51 1013.6
20260902214351 94 87 5.0 12.0 0.00 0.00 0.00 51 1015.4
20260902213831 95 195 3.0 10.0 0.00 0.00 0.00 51 1015.4
20260902213328 95 165 3.0 9.0 0.00 0.00 0.00 51 1015.4
20260902213015 94 164 2.0 12.0 0.00 0.00 0.00 51 1013.6
20260902212826 95 222 4.0 12.0 0.00 0.00 0.00 51 1015.4
20260902212312 95 192 4.0 11.0 0.00 0.00 0.00 50 1015.5
20260902211747 95 158 5.0 11.0 0.00 0.00 0.00 51 1015.5
20260902211542 94 151 5.0 13.0 0.00 0.00 0.00 50 1013.8
20260902211248 95 161 5.0 13.0 0.00 0.00 0.00 51 1015.5
20260902210721 95 162 4.0 12.0 0.00 0.00 0.00 52 1015.6
20260902210203 96 204 4.0 12.0 0.00 0.00 0.00 50 1015.5
20260902210109 95 214 2.0 8.0 0.00 0.00 0.00 51 1013.8
20260902205703 95 163 4.0 8.0 0.00 0.00 0.00 53 1015.6
20260902205146 95 225 5.0 11.0 0.00 0.00 0.00 51 1015.7
20260902204647 95 193 4.0 11.0 0.00 0.00 0.00 49 1015.6
20260902204623 95 178 4.0 10.0 0.00 0.00 0.00 51 1015.6
20260902204548 95 199 5.0 11.0 0.00 0.00 0.00 50 1013.9
20260902203629 95 188 4.0 11.0 0.00 0.00 0.00 51 1015.7
20260902203356 95 213 4.0 11.0 0.00 0.00 0.00 50 1015.7
20260902203101 95 214 5.0 11.0 0.00 0.00 0.00 50 1014.0
20260902202614 95 132 5.0 11.0 0.00 0.00 0.00 51 1015.7
20260902202055 95 90 4.0 11.0 0.00 0.00 0.00 51 1015.7
20260902201634 95 171 4.0 9.0 0.00 0.00 0.00 49 1014.0
20260902201600 96 140 4.0 10.0 0.00 0.00 0.00 49 1015.8
20260902201056 95 219 4.0 10.0 0.00 0.00 0.00 50 1015.8
20260902200533 95 98 3.0 12.0 0.00 0.00 0.00 49 1015.8
20260902200029 95 130 1.0 12.0 0.00 0.00 0.00 50 1014.2
20260902200027 95 130 4.0 12.0 0.00 0.00 0.00 50 1015.9
20260902195526 95 205 6.0 12.0 0.00 0.00 0.00 49 1015.9